This is the latest recevied weather packets stored in our database for station/object LZ1HCO-25. If no packets are shown the sender has not sent any weather packets the latest 10 day(s).
| Time | Temp. | Humidity | Pressure | Rain* | Wind** | Luminosity | Snow |
|---|---|---|---|---|---|---|---|
| 1777646443 | 11.11° C | 56% | 976 hPa | - | - | 0 W/m² | - |
| 1777646132 | 11.67° C | 53% | 976 hPa | - | - | 0 W/m² | - |
| 1777645820 | 11.11° C | 56% | 976 hPa | - | - | 0 W/m² | - |
| 1777645509 | 11.67° C | 54% | 976 hPa | - | - | 0 W/m² | - |
| 1777645198 | 12.22° C | 52% | 976 hPa | - | - | 0 W/m² | - |
| 1777644886 | 12.78° C | 54% | 976 hPa | - | - | 0 W/m² | - |
| 1777644575 | 11.67° C | 52% | 976 hPa | - | - | 0 W/m² | - |
| 1777644263 | 12.78° C | 54% | 976 hPa | - | - | 0 W/m² | - |
| 1777643952 | 12.22° C | 50% | 976 hPa | - | - | 0 W/m² | - |
| 1777643641 | 12.22° C | 54% | 977 hPa | - | - | 0 W/m² | - |
| 1777643329 | 12.22° C | 59% | 977 hPa | - | - | 0 W/m² | - |
| 1777643018 | 12.22° C | 58% | 977 hPa | - | - | 0 W/m² | - |
| 1777642707 | 13.33° C | 58% | 977 hPa | - | - | 0 W/m² | - |
| 1777642395 | 12.78° C | 54% | 977 hPa | - | - | 0 W/m² | - |
| 1777642084 | 13.33° C | 48% | 977 hPa | - | - | 0 W/m² | - |
| 1777641772 | 13.33° C | 50% | 977 hPa | - | - | 0 W/m² | - |
| 1777641461 | 12.22° C | 51% | 977 hPa | - | - | 0 W/m² | - |
| 1777641150 | 12.22° C | 52% | 977 hPa | - | - | 0 W/m² | - |
| 1777640838 | 13.89° C | 54% | 977 hPa | - | - | 0 W/m² | - |
| 1777640527 | 13.89° C | 61% | 977 hPa | - | - | 0 W/m² | - |
| 1777640216 | 12.78° C | 58% | 977 hPa | - | - | 0 W/m² | - |
| 1777639904 | 12.78° C | 61% | 977 hPa | - | - | 0 W/m² | - |
| 1777639593 | 12.22° C | 64% | 977 hPa | - | - | 0 W/m² | - |
| 1777639282 | 11.67° C | 59% | 977 hPa | - | - | 0 W/m² | - |
| 1777638970 | 12.22° C | 59% | 977 hPa | - | - | 0 W/m² | - |
* Rain since midnight (hover to see other rain measurements)
** Current wind speed in m/s (hover to see current wind gust speed)